[TLELIST] Archives

 

[list_settings.list_name] Current TLEs

September 9th 2009 PST

HST 1 20580U 90037B 09250.43949751 +.00000305 +00000-0 +10613-4 0 04439 2 20580 028.4717 285.4688 0003283 079.4269 280.6769 15.00827500862226 ISS (ZARYA) 1 25544U 98067A 09250.91774547 +.00006489 +00000-0 +48892-4 0 05684 2 25544 051.6388 242.1423 0009215 064.9948 030.0708 15.73986045618986 CXO 1 25867U 99040B 09251.12500000 +.00000149 +00000-0 +10000-3 0 03683 2 25867 065.8074 066.0895 7673341 275.5809 000.0350 00.37807816005329 ____________________________________________________________________ These 2-Line ...Continue Reading

[list_settings.list_name] Current TLEs

September 8th 2009 PST

HST 1 20580U 90037B 09246.51604620 +.00000300 +00000-0 +10178-4 0 04426 2 20580 028.4718 311.0751 0003346 037.1413 322.9497 15.00826422861630 ISS (ZARYA) 1 25544U 98067A 09249.83403892 +.00006402 +00000-0 +48325-4 0 05603 2 25544 051.6394 247.7072 0009276 061.1347 009.1594 15.73970519618814 CXO 1 25867U 99040B 09251.12500000 +.00000149 +00000-0 +10000-3 0 03683 2 25867 065.8074 066.0895 7673341 275.5809 000.0350 00.37807816005329 ____________________________________________________________________ These 2-Line ...Continue Reading

[list_settings.list_name] Current TLEs

September 7th 2009 PST

HST 1 20580U 90037B 09246.51604620 +.00000300 +00000-0 +10178-4 0 04426 2 20580 028.4718 311.0751 0003346 037.1413 322.9497 15.00826422861630 ISS (ZARYA) 1 25544U 98067A 09250.15520818 .00006405 00000-0 48333-4 0 5622 2 25544 051.6389 246.0582 0009207 062.4357 028.9281 15.73974960618866 CXO 1 25867U 99040B 09248.50000000 +.00000125 +00000-0 +10000-3 0 03679 2 25867 065.7907 066.2078 7670800 275.5674 002.7327 00.37807883005311 ____________________________________________________________________ These 2-Line ...Continue Reading

[list_settings.list_name] Current TLEs

September 6th 2009 PST

HST 1 20580U 90037B 09246.51604620 +.00000300 +00000-0 +10178-4 0 04426 2 20580 028.4718 311.0751 0003346 037.1413 322.9497 15.00826422861630 ISS (ZARYA) 1 25544U 98067A 09248.80732639 .00006002 00000-0 45612-4 0 5548 2 25544 051.6395 252.9789 0009257 057.1331 311.6040 15.73954302618656 CXO 1 25867U 99040B 09248.50000000 +.00000125 +00000-0 +10000-3 0 03679 2 25867 065.7907 066.2078 7670800 275.5674 002.7327 00.37807883005311 ____________________________________________________________________ These 2-Line ...Continue Reading

[list_settings.list_name] Current TLEs

September 5th 2009 PST

HST 1 20580U 90037B 09244.65406660 +.00000261 +00000-0 +71806-5 0 04414 2 20580 028.4720 323.2336 0003224 017.1890 342.8819 15.00825712861358 ISS (ZARYA) 1 25544U 98067A 09247.86566784 .00005940 00000-0 45214-4 0 5479 2 25544 051.6396 257.8145 0009330 053.5124 015.9862 15.73941475618506 CXO 1 25867U 99040B 09245.83333333 -.00000006 00000-0 10000-3 0 3668 2 25867 065.7788 066.2929 7667200 275.5632 359.7587 00.37805439 5304 ____________________________________________________________________ These 2-Line ...Continue Reading

[list_settings.list_name] Current TLEs

September 4th 2009 PST

HST 1 20580U 90037B 09244.65406660 +.00000261 +00000-0 +71806-5 0 04414 2 20580 028.4720 323.2336 0003224 017.1890 342.8819 15.00825712861358 ISS (ZARYA) 1 25544U 98067A 09245.64853169 +.00012336 +00000-0 +89109-4 0 05365 2 25544 051.6400 269.1982 0009342 045.4733 052.9797 15.73928673618150 CXO 1 25867U 99040B 09245.83333333 -.00000006 00000-0 10000-3 0 3668 2 25867 065.7788 066.2929 7667200 275.5632 359.7587 00.37805439 5304 ____________________________________________________________________ These 2-Line ...Continue Reading

[list_settings.list_name] Current TLEs

September 3rd 2009 PST

HST 1 20580U 90037B 09243.52357856 +.00000256 +00000-0 +67978-5 0 04409 2 20580 028.4716 330.6100 0003231 004.9030 355.1595 15.00825397861180 ISS (ZARYA) 1 25544U 98067A 09246.15176441 .00011323 00000-0 82149-4 0 5376 2 25544 051.6399 266.6128 0009156 048.4350 023.3130 15.73935286618232 CXO 1 25867U 99040B 09245.83333333 -.00000006 00000-0 10000-3 0 3668 2 25867 065.7788 066.2929 7667200 275.5632 359.7587 00.37805439 5304 ____________________________________________________________________ These 2-Line ...Continue Reading

[list_settings.list_name] Current TLEs

September 2nd 2009 PST

HST 1 20580U 90037B 09243.52357856 +.00000256 +00000-0 +67978-5 0 04409 2 20580 028.4716 330.6100 0003231 004.9030 355.1595 15.00825397861180 ISS (ZARYA) 1 25544U 98067A 09244.51466096 -.00000377 00000-0 18303-5 0 5282 2 25544 051.6407 275.0227 0009070 041.2521 108.2604 15.73888529617978 CXO 1 25867U 99040B 09245.83333333 -.00000006 00000-0 10000-3 0 3668 2 25867 065.7788 066.2929 7667200 275.5632 359.7587 00.37805439 5304 ____________________________________________________________________ These 2-Line ...Continue Reading

[list_settings.list_name] Current TLEs

September 1st 2009 PST

HST 1 20580U 90037B 09240.53111027 +.00000271 +00000-0 +79586-5 0 04398 2 20580 028.4715 350.1380 0003253 329.5865 030.4590 15.00824818860737 ISS (ZARYA) 1 25544U 98067A 09244.51466096 -.00000377 00000-0 18303-5 0 5271 2 25544 051.6407 275.0227 0009070 041.2521 108.2604 15.73888529617978 CXO 1 25867U 99040B 09243.16666667 -.00000175 +00000-0 +10000-3 0 03657 2 25867 065.7661 066.3737 7663648 275.5627 356.7627 00.37805604005292 ____________________________________________________________________ These 2-Line ...Continue Reading

[list_settings.list_name] Current TLEs

August 31st 2009 PST

HST 1 20580U 90037B 09240.53111027 +.00000271 +00000-0 +79586-5 0 04398 2 20580 028.4715 350.1380 0003253 329.5865 030.4590 15.00824818860737 ISS (ZARYA) 1 25544U 98067A 09242.83739583 .00006862 00000-0 51743-4 0 5175 2 25544 051.6405 283.6299 0009257 035.7867 323.9873 15.73845540617709 CXO 1 25867U 99040B 09243.16666667 -.00000175 +00000-0 +10000-3 0 03657 2 25867 065.7661 066.3737 7663648 275.5627 356.7627 00.37805604005292 ____________________________________________________________________ These 2-Line ...Continue Reading
  • This mailing list is a public mailing list - anyone may join or leave, at any time.
  • This mailing list is announce-only.

International Space Station (ISS) / Hubble Space Telescope (HST) / Chandra X-Ray Observatory Orbital Data via EMAIL

Privacy Policy:

Private list